Location: Caltech
(34.1382°N, 118.1253°W)
Time: 15:13:23
(UTC-07:00)

SO-67 - Visible Passes

Search period start: 28 September 2016 00:00
Search period end: 08 October 2016 00:00
Orbit: 415 x 417 km, 97.1° (Epoch: 28 September)

Date Brightness Start Highest point End Pass type
(mag) Time Alt. Az. Time Alt. Az. Time Alt. Az.
28 Sep ? 19:21:46 10° S 19:24:49 42° W 19:27:52 10° NNW visible
30 Sep ? 19:23:23 10° S 19:26:24 40° W 19:29:26 10° NNW visible
02 Oct ? 19:24:58 10° SSW 19:27:56 37° W 19:30:57 10° NNW visible
04 Oct ? 19:26:28 10° SSW 19:29:25 35° W 19:32:23 10° NNW visible
06 Oct ? 19:27:53 10° SSW 19:30:49 34° W 19:33:46 10° NNW visible
